^^
Datos históricos de la estación: Murcia-Puente Tocinos
Diario Informe para Septiembre 26, 2019 Unidades:  Ingés    Métrico   Ambas
Diario Semanal Mensual Anual
  Máxima: Mínima: Promedio:
Temperatura: 76.3 °F 54.9 °F 63.9 °F
Punto de rocio: 60.6 °F 50.9 °F 55.2 °F
Humedad: 89.9% 52.6% 75%
Velocidad viento: 9.2mph 0mph 4.1mph
Racha viento: 16.3mph - -
Viento- - SE
Presión: 30.1 in 30.1 in -
Precipitación: 0 in    
 
 
Tabla de datos para Septiembre 26, 2019
Hora Temperatura Punto de rocio Presión Viento Velocidad viento Racha viento Humedad Intensidad lluvia(por hora) Nubes
00:04 62.2 °F 52.3 °F 30.1 in SO 4 mph 7 mph 70% 0 in
00:09 62.2 °F 52.5 °F 30.1 in SO 4 mph 6 mph 70.9% 0 in
00:14 62.1 °F 52.5 °F 30.1 in SO 3.4 mph 6 mph 71% 0 in
00:19 61.9 °F 52.3 °F 30.1 in SO 3.1 mph 6.9 mph 71% 0 in
00:24 61.9 °F 52.3 °F 30.1 in SO 3.7 mph 8.5 mph 71% 0 in
00:29 61.9 °F 52.3 °F 30.1 in SSO 4 mph 9 mph 71% 0 in
00:34 61.9 °F 52.3 °F 30.1 in Sur 3.4 mph 6 mph 71% 0 in
00:39 61.7 °F 52.5 °F 30.1 in Sur 3.1 mph 6.9 mph 71.9% 0 in
00:44 61.3 °F 52.3 °F 30.1 in Sur 4 mph 7.4 mph 72.5% 0 in
00:49 61 °F 52.3 °F 30.1 in SSO 4.3 mph 7 mph 73.3% 0 in
00:54 60.8 °F 52.5 °F 30.1 in Sur 4.6 mph 6.9 mph 74% 0 in
00:59 60.6 °F 52.3 °F 30.1 in Sur 4.7 mph 7 mph 74.4% 0 in
01:04 60.4 °F 52.5 °F 30.1 in Sur 4.4 mph 6.2 mph 75% 0 in
01:09 60.3 °F 52.5 °F 30.1 in SSO 4.3 mph 6 mph 75.7% 0 in
01:14 60.1 °F 52.5 °F 30.1 in SSO 4.3 mph 6.9 mph 76% 0 in
01:19 60.1 °F 52.5 °F 30.1 in SSO 4.3 mph 8.5 mph 76% 0 in
01:24 59.7 °F 52.5 °F 30.1 in SSO 4.6 mph 9 mph 77% 0 in
01:29 59.7 °F 52.5 °F 30.1 in SSO 4.7 mph 9 mph 77% 0 in
01:34 59.5 °F 52.5 °F 30.1 in Sur 5.2 mph 9 mph 77.4% 0 in
01:39 59.5 °F 52.7 °F 30.1 in Sur 5.4 mph 7 mph 78% 0 in
01:44 59.4 °F 52.5 °F 30.1 in SSO 4.6 mph 7.4 mph 78% 0 in
01:49 59.4 °F 52.7 °F 30.1 in SSO 4.3 mph 7 mph 79% 0 in
01:54 59.4 °F 52.7 °F 30.1 in Sur 4.6 mph 7.4 mph 79% 0 in
01:59 59.4 °F 52.7 °F 30.1 in Sur 4.7 mph 7 mph 79% 0 in
02:04 59.2 °F 52.7 °F 30.1 in Sur 4.4 mph 7 mph 79% 0 in
02:09 59.2 °F 52.7 °F 30.1 in SSO 4.3 mph 7 mph 79% 0 in
02:14 59.2 °F 52.7 °F 30.1 in SSO 4.3 mph 7 mph 79.4% 0 in
02:19 59 °F 52.9 °F 30.1 in SSO 4.3 mph 8.1 mph 80% 0 in
02:24 59 °F 52.9 °F 30.1 in SSO 5 mph 8 mph 80% 0 in
02:29 59 °F 52.9 °F 30.1 in SSO 5.2 mph 6.9 mph 80% 0 in
02:34 59 °F 52.5 °F 30.1 in SSO 4.5 mph 7 mph 79.1% 0 in
02:39 59.2 °F 52.7 °F 30.1 in SSO 4.3 mph 7.4 mph 79% 0 in
02:44 59.2 °F 52.7 °F 30.1 in SO 4.3 mph 7.4 mph 79% 0 in
02:49 59.4 °F 52.7 °F 30.1 in SO 4.3 mph 7 mph 79% 0 in
02:54 59.4 °F 52.9 °F 30.1 in SO 3.8 mph 5.2 mph 79% 0 in
02:59 59.4 °F 52.9 °F 30.1 in SO 3.6 mph 5 mph 79% 0 in
03:04 59.4 °F 52.9 °F 30.1 in SO 3 mph 5 mph 79% 0 in
03:09 59.4 °F 52.7 °F 30.1 in SO 2.9 mph 6.9 mph 79% 0 in
03:14 59.2 °F 52.9 °F 30.1 in OSO 3.7 mph 7 mph 79.9% 0 in
03:19 59 °F 52.9 °F 30.1 in SO 4 mph 7 mph 80% 0 in
03:24 58.8 °F 52.9 °F 30.1 in SO 3.7 mph 6.2 mph 80.7% 0 in
03:29 58.6 °F 52.9 °F 30.1 in SO 3.6 mph 6.9 mph 81% 0 in
03:34 58.6 °F 52.9 °F 30.1 in SO 4.1 mph 7 mph 81% 0 in
03:39 58.6 °F 52.9 °F 30.1 in OSO 4.3 mph 6.2 mph 81.4% 0 in
03:44 58.6 °F 53.1 °F 30.1 in SO 3.8 mph 6 mph 82% 0 in
03:49 58.5 °F 53.1 °F 30.1 in SO 3.6 mph 6 mph 82% 0 in
03:54 58.5 °F 52.9 °F 30.1 in SO 2.7 mph 5.2 mph 82% 0 in
03:59 58.3 °F 52.9 °F 30.1 in SO 2.4 mph 5 mph 82% 0 in
04:04 58.3 °F 52.9 °F 30.1 in SO 2.9 mph 6.2 mph 82% 0 in
04:09 58.3 °F 52.9 °F 30.1 in OSO 3.1 mph 6 mph 82% 0 in
04:14 58.1 °F 52.7 °F 30.1 in SO 3.1 mph 5 mph 82% 0 in
04:19 58.1 °F 52.5 °F 30.1 in SO 3.1 mph 5.2 mph 82% 0 in
04:24 58.1 °F 52.7 °F 30.1 in SO 3.1 mph 6.2 mph 82.4% 0 in
04:29 58.1 °F 52.7 °F 30.1 in SO 3.1 mph 6 mph 82.4% 0 in
04:34 58.1 °F 52.5 °F 30.1 in SO 3.1 mph 5 mph 82% 0 in
04:39 58.1 °F 52.5 °F 30.1 in SO 3.1 mph 5.2 mph 82% 0 in
04:44 57.9 °F 52.5 °F 30.1 in SSO 2.9 mph 6.2 mph 82% 0 in
04:49 57.9 °F 52.5 °F 30.1 in SO 2.9 mph 6 mph 82% 0 in
04:54 57.9 °F 52.5 °F 30.1 in Sur 3 mph 5 mph 82% 0 in
04:59 57.6 °F 52.2 °F 30.1 in SE 3.1 mph 5.2 mph 81.8% 0 in
05:04 57 °F 51.4 °F 30.1 in SE 2.9 mph 5.4 mph 81.2% 0 in
05:09 56.3 °F 51.1 °F 30.1 in SSE 2.9 mph 6 mph 82.4% 0 in
05:14 55.8 °F 50.9 °F 30.1 in Sur 3.4 mph 6 mph 83.9% 0 in
05:19 55.2 °F 50.9 °F 30.1 in SSE 3.6 mph 6.2 mph 85.2% 0 in
05:24 55 °F 50.9 °F 30.1 in SSE 3.9 mph 6.2 mph 86% 0 in
05:29 54.9 °F 51.1 °F 30.1 in SE 4 mph 6 mph 86.7% 0 in
05:34 54.9 °F 51.1 °F 30.1 in SSE 3.7 mph 6 mph 87% 0 in
05:39 55 °F 51.3 °F 30.1 in SE 3.6 mph 6.2 mph 87% 0 in
05:44 54.9 °F 51.1 °F 30.1 in SSE 3.6 mph 6 mph 87% 0 in
05:49 54.9 °F 51.1 °F 30.1 in SE 3.6 mph 6 mph 87% 0 in
05:54 54.9 °F 51.1 °F 30.1 in SSE 3.6 mph 6 mph 87% 0 in
05:59 54.9 °F 51.1 °F 30.1 in SSE 3.6 mph 6 mph 87% 0 in
06:04 54.9 °F 51.4 °F 30.1 in SE 3.2 mph 5.9 mph 87.9% 0 in
06:09 55 °F 51.4 °F 30.1 in SSE 3.1 mph 6 mph 87.6% 0 in
06:14 54.9 °F 51.1 °F 30.1 in SSE 3.1 mph 5.8 mph 87% 0 in
06:19 55 °F 51.3 °F 30.1 in SSE 3.1 mph 6 mph 87.5% 0 in
06:24 55 °F 51.4 °F 30.1 in SE 3.1 mph 5.4 mph 87.6% 0 in
06:29 55 °F 51.3 °F 30.1 in SSE 3.1 mph 6 mph 87% 0 in
06:34 55 °F 51.3 °F 30.1 in SSE 3.7 mph 6 mph 87% 0 in
06:39 55 °F 51.3 °F 30.1 in Sur 4 mph 6 mph 87% 0 in
06:44 55.2 °F 51.4 °F 30.1 in SSO 3.4 mph 5.2 mph 87% 0 in
06:49 55.2 °F 51.4 °F 30.1 in SSO 3.1 mph 5 mph 87% 0 in
06:54 55.6 °F 51.8 °F 30.1 in Sur 3.5 mph 5 mph 87% 0 in
06:59 55.6 °F 51.8 °F 30.1 in SSE 3.6 mph 5.8 mph 87% 0 in
07:04 55.8 °F 51.8 °F 30.1 in Sur 3.6 mph 6 mph 86.8% 0 in
07:09 55.8 °F 51.6 °F 30.1 in Sur 3.6 mph 6.9 mph 86% 0 in
07:14 55.8 °F 51.6 °F 30.1 in Sur 3.9 mph 7 mph 86% 0 in
07:19 55.6 °F 51.4 °F 30.1 in Sur 4 mph 7 mph 86% 0 in
07:24 55.6 °F 51.4 °F 30.1 in SSE 4.2 mph 7 mph 86% 0 in
07:29 55.4 °F 51.3 °F 30.1 in SSE 4.3 mph 6.2 mph 86% 0 in
07:34 55.2 °F 51.3 °F 30.1 in SSE 4.3 mph 6 mph 86.2% 0 in
07:39 55.2 °F 51.4 °F 30.1 in SSE 4.3 mph 6.9 mph 87% 0 in
07:44 55.2 °F 51.4 °F 30.1 in SSE 4.3 mph 8.1 mph 87% 0 in
07:49 55.2 °F 51.3 °F 30.1 in Sur 4.3 mph 8 mph 86.4% 0 in
07:54 55.2 °F 51.1 °F 30.1 in Sur 4.6 mph 7.4 mph 86.1% 0 in
07:59 55.2 °F 51.4 °F 30.1 in Sur 4.7 mph 7 mph 87% 0 in
08:04 55.2 °F 51.4 °F 30.1 in SSO 4.7 mph 7 mph 87% 0 in
08:09 55.2 °F 51.4 °F 30.1 in SSO 4.7 mph 7 mph 87% 0 in
08:14 55.4 °F 51.6 °F 30.1 in SSO 4.4 mph 7 mph 87% 0 in
08:19 55.4 °F 51.6 °F 30.1 in SSO 4.3 mph 6.2 mph 87% 0 in
08:24 55.6 °F 51.6 °F 30.1 in Sur 4.1 mph 6.9 mph 86.7% 0 in
08:29 55.6 °F 51.4 °F 30.1 in Sur 4 mph 7 mph 86% 0 in
08:34 55.6 °F 51.4 °F 30.1 in Sur 4.2 mph 6.2 mph 86% 0 in
08:39 55.4 °F 51.3 °F 30.1 in Sur 4.3 mph 6 mph 86% 0 in
08:44 55.2 °F 51.1 °F 30.1 in Sur 4.3 mph 6.2 mph 86% 0 in
08:49 55.2 °F 51.3 °F 30.1 in SSO 4.3 mph 6 mph 86.7% 0 in
08:54 55.2 °F 51.4 °F 30.1 in SO 4.1 mph 6.9 mph 87% 0 in
08:59 55.6 °F 51.6 °F 30.1 in SSO 4 mph 7 mph 86.7% 0 in
09:04 55.8 °F 51.6 °F 30.1 in SSO 3.7 mph 6 mph 86% 0 in
09:09 55.9 °F 51.6 °F 30.1 in SSO 3.6 mph 6 mph 85.8% 0 in
09:14 56.1 °F 51.8 °F 30.1 in Sur 3.6 mph 6.9 mph 85% 0 in
09:19 56.5 °F 51.8 °F 30.1 in SSO 3.6 mph 8.5 mph 84.4% 0 in
09:24 56.5 °F 51.6 °F 30.1 in SSO 4.4 mph 9 mph 84% 0 in
09:29 56.7 °F 51.8 °F 30.1 in SSO 4.7 mph 8.1 mph 84% 0 in
09:34 56.7 °F 52 °F 30.1 in Sur 4.4 mph 8 mph 84% 0 in
09:39 56.8 °F 51.8 °F 30.1 in SSE 4.3 mph 6 mph 83.1% 0 in
09:44 57.4 °F 52.2 °F 30.1 in Sur 3.4 mph 6 mph 83% 0 in
09:49 57.6 °F 52.2 °F 30.1 in SSO 3.1 mph 5 mph 82.3% 0 in
09:54 57.7 °F 52.2 °F 30.1 in SSO 2.9 mph 5.8 mph 81.8% 0 in
09:59 58.1 °F 52.3 °F 30.1 in SSE 2.9 mph 6.4 mph 81.3% 0 in
10:04 58.5 °F 52.5 °F 30.1 in Sur 3.4 mph 7 mph 80.4% 0 in
10:09 58.6 °F 52.5 °F 30.1 in SSO 3.6 mph 7 mph 79.9% 0 in
10:14 58.8 °F 52.5 °F 30.1 in Sur 3.9 mph 6 mph 79.6% 0 in
10:19 59.2 °F 52.7 °F 30.1 in SSE 4 mph 5.8 mph 79% 0 in
10:24 59.5 °F 52.9 °F 30.1 in SSE 3.4 mph 6 mph 78.4% 0 in
10:29 60.1 °F 53.1 °F 30.1 in SSO 3.1 mph 5 mph 77.4% 0 in
10:34 60.4 °F 52.9 °F 30.1 in OSO 3 mph 5 mph 76.1% 0 in
10:39 60.6 °F 52.7 °F 30.1 in SO 2.9 mph 5.8 mph 75.4% 0 in
10:44 60.8 °F 52.9 °F 30.1 in SO 3 mph 8.1 mph 75% 0 in
10:49 61 °F 53.1 °F 30.1 in SO 3.1 mph 8 mph 75% 0 in
10:54 61.3 °F 53.2 °F 30.1 in SO 3.8 mph 6.4 mph 74.9% 0 in
10:59 61.7 °F 53.2 °F 30.1 in SSO 4 mph 7 mph 73.9% 0 in
11:04 62.1 °F 53.2 °F 30.1 in SO 4 mph 7 mph 72.8% 0 in
11:09 62.2 °F 53.2 °F 30.1 in SSO 4 mph 7 mph 72.4% 0 in
11:14 62.4 °F 53.2 °F 30.1 in Sur 4.2 mph 7 mph 71.8% 0 in
11:19 63 °F 53.1 °F 30.1 in Sur 4.3 mph 7 mph 70.5% 0 in
11:24 63 °F 53.1 °F 30.1 in SSO 3.8 mph 7 mph 70.1% 0 in
11:29 63.1 °F 53.4 °F 30.1 in Sur 3.6 mph 6.9 mph 70.5% 0 in
11:34 63.5 °F 53.6 °F 30.1 in Sur 3.9 mph 7 mph 70% 0 in
11:39 63.9 °F 53.8 °F 30.1 in Sur 4 mph 8.1 mph 69.7% 0 in
11:44 64 °F 53.8 °F 30.1 in Sur 4.2 mph 8 mph 69.1% 0 in
11:49 64.6 °F 54 °F 30.1 in Sur 4.3 mph 7.4 mph 68.5% 0 in
11:54 64.9 °F 53.8 °F 30.1 in SSO 4.3 mph 7.4 mph 67.6% 0 in
11:59 65.1 °F 53.8 °F 30.1 in Sur 4.3 mph 7.4 mph 66.6% 0 in
12:04 65.3 °F 54.1 °F 30.1 in Sur 4.6 mph 7 mph 67% 0 in
12:09 65.7 °F 54.1 °F 30.1 in SSE 4.7 mph 8.1 mph 66.3% 0 in
12:14 65.8 °F 53.8 °F 30.1 in SSE 4.2 mph 8.1 mph 65.2% 0 in
12:19 66 °F 53.8 °F 30.1 in SSE 4 mph 8.1 mph 65% 0 in
12:24 66.2 °F 54.1 °F 30.1 in SSE 4.9 mph 8 mph 65.1% 0 in
12:29 66.6 °F 54.3 °F 30.1 in SSO 5.2 mph 7 mph 64.5% 0 in
12:34 66.7 °F 54.3 °F 30.1 in Sur 4.3 mph 6 mph 64.3% 0 in
12:39 67.5 °F 54.7 °F 30.1 in SO 4 mph 5 mph 63.6% 0 in
12:44 67.8 °F 54.7 °F 30.1 in Sur 2.9 mph 6.9 mph 62.5% 0 in
12:49 68.4 °F 54.7 °F 30.1 in Sur 2.4 mph 7 mph 62% 0 in
12:54 68.5 °F 54.9 °F 30.1 in Sur 2.9 mph 5.2 mph 61.3% 0 in
12:59 69.1 °F 54.7 °F 30.1 in SE 3.1 mph 5 mph 60.1% 0 in
13:04 69.4 °F 54.9 °F 30.1 in ESE 2.5 mph 5 mph 59.7% 0 in
13:09 69.8 °F 54.9 °F 30.1 in ENE 2.4 mph 4.6 mph 58.8% 0 in
13:14 70.2 °F 54.5 °F 30.1 in NE 2.1 mph 5 mph 58% 0 in
13:19 70.3 °F 54.5 °F 30.1 in NE 2 mph 3.6 mph 57.1% 0 in
13:24 70.7 °F 54.5 °F 30.1 in NNE 1.6 mph 4 mph 56.4% 0 in
13:29 70.9 °F 54.1 °F 30.1 in NNO 1.4 mph 5 mph 55.3% 0 in
13:34 71.1 °F 54.5 °F 30.1 in NNO 1.8 mph 5 mph 55.7% 0 in
13:39 71.2 °F 55 °F 30.1 in NNO 2 mph 5 mph 56.5% 0 in
13:44 71.6 °F 55 °F 30.1 in North 1.6 mph 4.7 mph 56% 0 in
13:49 72 °F 55.4 °F 30.1 in North 1.4 mph 5 mph 56% 0 in
13:54 72.3 °F 55.6 °F 30.1 in North 2.1 mph 5.9 mph 56% 0 in
13:59 72.1 °F 55.4 °F 30.1 in ENE 2.4 mph 6 mph 55.4% 0 in
14:04 72.1 °F 55.6 °F 30.1 in NNE 2.8 mph 7.4 mph 55.8% 0 in
14:09 72.1 °F 55.8 °F 30.1 in NE 2.9 mph 7 mph 56.4% 0 in
14:14 72.3 °F 55.8 °F 30.1 in NE 3.4 mph 7 mph 56% 0 in
14:19 72.7 °F 56.1 °F 30.1 in NNE 3.6 mph 6 mph 56.4% 0 in
14:24 72.9 °F 56.3 °F 30.1 in NE 3.2 mph 8.1 mph 56.2% 0 in
14:29 73 °F 56.7 °F 30.1 in NE 3.1 mph 8 mph 56.4% 0 in
14:34 73.2 °F 56.7 °F 30.1 in NE 3.7 mph 8.5 mph 56% 0 in
14:39 73.2 °F 56.7 °F 30.1 in NNE 4 mph 9.7 mph 56% 0 in
14:44 73.2 °F 56.7 °F 30.1 in NNE 5 mph 10 mph 56% 0 in
14:49 73.6 °F 56.7 °F 30.1 in NNE 5.4 mph 9 mph 55.8% 0 in
14:54 73.8 °F 56.8 °F 30.1 in NE 5.4 mph 10.4 mph 55.5% 0 in
14:59 73.9 °F 56.8 °F 30.1 in ENE 5.4 mph 10 mph 55.3% 0 in
15:04 73.9 °F 57 °F 30.1 in NE 4.5 mph 7 mph 55.5% 0 in
15:09 74.3 °F 57.2 °F 30.1 in NE 4.3 mph 7.4 mph 55.4% 0 in
15:14 74.5 °F 57.4 °F 30.1 in North 3.8 mph 7 mph 55% 0 in
15:19 74.7 °F 57.4 °F 30.1 in NNE 3.6 mph 7 mph 55% 0 in
15:24 74.7 °F 57.6 °F 30.1 in NE 3.2 mph 9.2 mph 55% 0 in
15:29 74.7 °F 57.6 °F 30.1 in NNO 3.1 mph 9 mph 55% 0 in
15:34 74.8 °F 57.7 °F 30.1 in Este 3.7 mph 6.2 mph 55% 0 in
15:39 75.2 °F 57.7 °F 30.1 in ENE 4 mph 6 mph 54.7% 0 in
15:44 75.4 °F 57.6 °F 30.1 in NE 3.2 mph 7.6 mph 54% 0 in
15:49 75.6 °F 57.6 °F 30.1 in NNE 2.9 mph 8.1 mph 53.6% 0 in
15:54 75.7 °F 57.6 °F 30.1 in NE 3.7 mph 8 mph 53.3% 0 in
15:59 75.9 °F 57.6 °F 30.1 in ENE 4 mph 8.1 mph 53% 0 in
16:04 76.1 °F 57.6 °F 30.1 in NO 3.7 mph 8 mph 52.6% 0 in
16:09 76.3 °F 57.9 °F 30.1 in NE 3.6 mph 10.7 mph 53% 0 in
16:14 76.1 °F 57.7 °F 30.1 in NE 4.1 mph 11 mph 53% 0 in
16:19 75.9 °F 57.6 °F 30.1 in NE 4.3 mph 10.4 mph 53% 0 in
16:24 75.9 °F 57.9 °F 30.1 in NE 5.5 mph 9.2 mph 53.6% 0 in
16:29 75.9 °F 58.1 °F 30.1 in NE 5.9 mph 10.4 mph 54% 0 in
16:34 75.9 °F 58.5 °F 30.1 in NE 6.3 mph 10.4 mph 54.7% 0 in
16:39 76.1 °F 59.2 °F 30.1 in NE 6.4 mph 11.8 mph 55.7% 0 in
16:44 76.1 °F 59.5 °F 30.1 in NNE 5.7 mph 12 mph 56.5% 0 in
16:49 76.1 °F 59.4 °F 30.1 in Este 5.4 mph 9.2 mph 56.2% 0 in
16:54 76.1 °F 59 °F 30.1 in Este 4.6 mph 9 mph 55.4% 0 in
16:59 76.1 °F 58.8 °F 30.1 in Este 4.3 mph 8.1 mph 55.4% 0 in
17:04 75.9 °F 59 °F 30.1 in Este 4.3 mph 8 mph 55.9% 0 in
17:09 75.7 °F 59.4 °F 30.1 in ESE 4.3 mph 7 mph 57% 0 in
17:14 75.6 °F 59 °F 30.1 in ESE 4.1 mph 8.1 mph 56.5% 0 in
17:19 75.6 °F 59.2 °F 30.1 in ESE 4 mph 13.5 mph 57% 0 in
17:24 75.2 °F 59.7 °F 30.1 in ESE 5.4 mph 14 mph 58.7% 0 in
17:29 74.7 °F 59.9 °F 30.1 in ESE 5.9 mph 14 mph 60.2% 0 in
17:34 74.5 °F 59.9 °F 30.1 in ESE 7.8 mph 14 mph 60.5% 0 in
17:39 74.3 °F 59.9 °F 30.1 in Este 8.5 mph 14 mph 60.9% 0 in
17:44 74.1 °F 59.7 °F 30.1 in ESE 7.8 mph 13 mph 61% 0 in
17:49 73.9 °F 59.5 °F 30.1 in ESE 7.6 mph 16.3 mph 61% 0 in
17:54 73.6 °F 59.5 °F 30.1 in ESE 8.3 mph 16.1 mph 61.5% 0 in
17:59 73.2 °F 59.4 °F 30.1 in ESE 8.5 mph 15 mph 62% 0 in
18:04 73 °F 59.4 °F 30.1 in ESE 9.1 mph 16.1 mph 62.6% 0 in
18:09 72.9 °F 59.5 °F 30.1 in ESE 9.2 mph 16 mph 63% 0 in
18:14 72.7 °F 59.4 °F 30.1 in ESE 8.8 mph 13 mph 63% 0 in
18:19 72.7 °F 59.5 °F 30.1 in ESE 8.7 mph 13.7 mph 63.8% 0 in
18:24 72.3 °F 59.5 °F 30.1 in ESE 8.3 mph 14 mph 64% 0 in
18:29 72.1 °F 59.4 °F 30.1 in ESE 8.1 mph 13 mph 64.3% 0 in
18:34 72 °F 59.7 °F 30.1 in ESE 7.7 mph 12.7 mph 65.4% 0 in
18:39 71.8 °F 60.1 °F 30.1 in ESE 7.6 mph 13 mph 66.5% 0 in
18:44 71.4 °F 60.1 °F 30.1 in ESE 7.5 mph 10.4 mph 67.5% 0 in
18:49 71.2 °F 60.3 °F 30.1 in ESE 7.4 mph 11.5 mph 68.2% 0 in
18:54 71.2 °F 60.4 °F 30.1 in Este 7.4 mph 12 mph 69% 0 in
18:59 71.1 °F 60.6 °F 30.1 in Este 7.4 mph 10 mph 69.9% 0 in
19:04 70.7 °F 60.4 °F 30.1 in ENE 5.7 mph 9 mph 70.3% 0 in
19:09 70.3 °F 60.6 °F 30.1 in NE 5.2 mph 9 mph 71% 0 in
19:14 70.2 °F 60.4 °F 30.1 in ENE 4.5 mph 8.5 mph 71% 0 in
19:19 70 °F 60.4 °F 30.1 in NE 4.3 mph 9.2 mph 71.9% 0 in
19:24 69.6 °F 60.3 °F 30.1 in NE 4.6 mph 9 mph 72.1% 0 in
19:29 69.4 °F 60.4 °F 30.1 in NE 4.7 mph 7 mph 73% 0 in
19:34 69.3 °F 60.4 °F 30.1 in NE 3.9 mph 6.2 mph 73.8% 0 in
19:39 68.7 °F 60.3 °F 30.1 in NE 3.6 mph 6.9 mph 74.5% 0 in
19:44 68.4 °F 60.3 °F 30.1 in NE 3.9 mph 8.5 mph 75.4% 0 in
19:49 67.8 °F 60.1 °F 30.1 in NE 4 mph 9.7 mph 76.2% 0 in
19:54 67.5 °F 60.1 °F 30.1 in NNE 5.4 mph 10 mph 77% 0 in
19:59 67.3 °F 60.1 °F 30.1 in NE 5.9 mph 9.2 mph 77.8% 0 in
20:04 66.9 °F 59.9 °F 30.1 in NE 6.2 mph 9.7 mph 78% 0 in
20:09 66.9 °F 60.1 °F 30.1 in NNE 6.2 mph 10.4 mph 78.8% 0 in
20:14 66.7 °F 60.1 °F 30.1 in NNE 6 mph 10 mph 79% 0 in
20:19 66.6 °F 60.1 °F 30.1 in NE 5.9 mph 9 mph 79.7% 0 in
20:24 66.4 °F 60.1 °F 30.1 in NE 5.4 mph 9.2 mph 80% 0 in
20:29 66.2 °F 60.1 °F 30.1 in NE 5.2 mph 9 mph 80.8% 0 in
20:34 66 °F 59.9 °F 30.1 in NE 4.8 mph 9 mph 81% 0 in
20:39 65.8 °F 60.1 °F 30.1 in NE 4.7 mph 8.1 mph 81.9% 0 in
20:44 65.7 °F 59.9 °F 30.1 in NE 5 mph 8.5 mph 82% 0 in
20:49 65.3 °F 59.9 °F 30.1 in NE 5.2 mph 9 mph 82.8% 0 in
20:54 65.1 °F 59.7 °F 30.1 in NNE 5.7 mph 10.4 mph 83% 0 in
20:59 64.9 °F 59.9 °F 30.1 in NE 5.9 mph 10 mph 83.4% 0 in
21:04 64.8 °F 59.9 °F 30.1 in NNE 4.7 mph 7.4 mph 84% 0 in
21:09 64.8 °F 59.7 °F 30.1 in NNE 4.3 mph 8.1 mph 84.1% 0 in
21:14 64.4 °F 59.9 °F 30.1 in NNE 5 mph 8.5 mph 85% 0 in
21:19 64.2 °F 59.5 °F 30.1 in NNE 5.2 mph 9 mph 85.1% 0 in
21:24 64 °F 59.7 °F 30.1 in NNE 5.3 mph 9 mph 86% 0 in
21:29 64 °F 59.7 °F 30.1 in NE 5.4 mph 8.5 mph 86% 0 in
21:34 63.9 °F 59.7 °F 30.1 in NE 5.3 mph 9 mph 86.5% 0 in
21:39 63.9 °F 59.9 °F 30.1 in NE 5.2 mph 8 mph 87% 0 in
21:44 63.9 °F 59.9 °F 30.1 in NE 4.3 mph 7.4 mph 87% 0 in
21:49 63.9 °F 59.9 °F 30.1 in NE 4 mph 7 mph 87% 0 in
21:54 63.9 °F 59.9 °F 30.1 in NE 4.5 mph 7 mph 87% 0 in
21:59 63.9 °F 59.9 °F 30.1 in NE 4.7 mph 6 mph 87% 0 in
22:04 63.9 °F 59.9 °F 30.1 in NE 4.2 mph 6 mph 87% 0 in
22:09 63.9 °F 59.9 °F 30.1 in NE 4 mph 5.9 mph 87% 0 in
22:14 63.7 °F 59.7 °F 30.1 in NE 3.4 mph 6 mph 87% 0 in
22:19 63.5 °F 59.7 °F 30.1 in NE 3.1 mph 6.2 mph 87.4% 0 in
22:24 63.3 °F 59.7 °F 30.1 in NE 3.5 mph 6 mph 88% 0 in
22:29 63.1 °F 59.5 °F 30.1 in NE 3.6 mph 5.2 mph 88% 0 in
22:34 63.1 °F 59.4 °F 30.1 in NNE 2.7 mph 5 mph 88% 0 in
22:39 63 °F 59.4 °F 30.1 in NNE 2.4 mph 4 mph 88% 0 in
22:44 63 °F 59.5 °F 30.1 in NNE 1.9 mph 5 mph 88.8% 0 in
22:49 62.8 °F 59.5 °F 30.1 in NNE 1.8 mph 3 mph 89% 0 in
22:54 62.8 °F 59.5 °F 30.1 in NNE 0.5 mph   89% 0 in
22:59 62.8 °F 59.5 °F 30.1 in Calm   2.4 mph 89% 0 in
23:04 62.8 °F 59.4 °F 30.1 in NNE 1.1 mph 3.6 mph 89% 0 in
23:09 62.6 °F 59.2 °F 30.1 in NNE 1.4 mph 4 mph 89% 0 in
23:14 62.4 °F 59 °F 30.1 in NNE 0.4 mph 4.6 mph 88.5% 0 in
23:19 62.2 °F 59 °F 30.1 in Calm   5 mph 89% 0 in
23:24 62.2 °F 59 °F 30.1 in Este 1.5 mph 4 mph 89% 0 in
23:29 62.1 °F 58.8 °F 30.1 in Este 2 mph 3.1 mph 89% 0 in
23:34 62.1 °F 58.8 °F 30.1 in Este 1.9 mph 3.5 mph 89% 0 in
23:39 62.1 °F 58.8 °F 30.1 in Este 1.8 mph 3.5 mph 89% 0 in
23:44 61.9 °F 58.6 °F 30.1 in Este 1.8 mph 3.5 mph 89% 0 in
23:49 61.9 °F 58.6 °F 30.1 in ESE 1.8 mph 2 mph 89% 0 in
23:54 61.9 °F 58.6 °F 30.1 in ESE 0.5 mph 1 mph 89% 0 in
23:59 61.9 °F 58.8 °F 30.1 in Calm   3.5 mph 89.9% 0 in
Murcia-Puente Tocinos, España
Compliments of Weather Underground - 3 mb

La estación de MeteoMurcia.com, publica sus datos en los siguientes proyectos:

Weather Underground PWS IMURCIAP2 Meteoclimatic www.awekas.at

W3Counter
Web Analytics